Time,TemperatureF,DewpointF,PressureIn,WindDirection,WindDirectionDegrees,WindSpeedMPH,WindSpeedGustMPH,Humidity,HourlyPrecipIn,Conditions,Clouds,dailyrainin,SoftwareType,DateUTC
2013-09-06 19:03:00,81.3,46.4,29.65,North,0,0.0,0.0,31,0.00,,,0.00,WUHU216WMR968SP,2013-09-07 00:03:00,
2013-09-06 19:25:00,80.4,48.2,29.65,North,0,0.0,0.0,32,0.00,,,0.00,WUHU216WMR968SP,2013-09-07 00:25:00,
2013-09-06 19:26:00,80.4,48.2,29.65,North,0,0.0,0.0,32,0.00,,,0.00,WUHU216WMR968SP,2013-09-07 00:26:00,
2013-09-06 19:27:00,80.2,48.2,29.65,North,0,0.0,0.0,32,0.00,,,0.00,WUHU216WMR968SP,2013-09-07 00:27:00,
2013-09-06 19:32:00,80.2,48.2,29.65,North,0,0.0,0.0,32,0.00,,,0.00,WUHU216WMR968SP,2013-09-07 00:32:00,
2013-09-06 19:37:00,80.1,48.2,29.65,North,0,0.0,2.7,33,0.00,,,0.00,WUHU216WMR968SP,2013-09-07 00:37:00,
2013-09-06 19:42:00,79.7,48.2,29.65,North,8,0.0,2.7,33,0.00,,,0.00,WUHU216WMR968SP,2013-09-07 00:42:00,
2013-09-06 19:47:00,79.3,48.2,29.65,North,357,0.0,2.7,34,0.00,,,0.00,WUHU216WMR968SP,2013-09-07 00:47:00,
2013-09-06 19:52:00,79.0,48.2,29.65,NNE,20,0.0,2.7,35,0.00,,,0.00,WUHU216WMR968SP,2013-09-07 00:52:00,
2013-09-06 19:57:00,78.8,50.0,29.65,North,357,0.0,3.6,36,0.00,,,0.00,WUHU216WMR968SP,2013-09-07 00:57:00,
2013-09-06 20:03:00,78.6,50.0,29.65,NNE,31,0.0,4.0,37,0.00,,,0.00,WUHU216WMR968SP,2013-09-07 01:03:00,
2013-09-06 20:08:00,78.1,51.8,29.65,NNE,21,0.0,4.0,39,0.00,,,0.00,WUHU216WMR968SP,2013-09-07 01:08:00,
2013-09-06 20:13:00,77.4,51.8,29.65,North,10,0.0,0.0,41,0.00,,,0.00,WUHU216WMR968SP,2013-09-07 01:13:00,
2013-09-06 20:18:00,76.6,51.8,29.65,North,10,0.0,0.0,42,0.00,,,0.00,WUHU216WMR968SP,2013-09-07 01:18:00,
2013-09-06 20:23:00,75.9,51.8,29.65,North,8,0.0,0.0,44,0.00,,,0.00,WUHU216WMR968SP,2013-09-07 01:23:00,
2013-09-06 20:28:00,75.4,53.6,29.65,North,8,0.0,0.0,46,0.00,,,0.00,WUHU216WMR968SP,2013-09-07 01:28:00,
2013-09-06 20:33:00,74.7,55.4,29.68,North,8,0.0,0.0,49,0.00,,,0.00,WUHU216WMR968SP,2013-09-07 01:33:00,
2013-09-06 20:38:00,74.1,53.6,29.68,North,8,0.0,0.0,49,0.00,,,0.00,WUHU216WMR968SP,2013-09-07 01:38:00,
2013-09-06 20:43:00,73.9,53.6,29.68,North,8,0.0,0.0,49,0.00,,,0.00,WUHU216WMR968SP,2013-09-07 01:43:00,
2013-09-06 20:48:00,73.9,53.6,29.68,North,8,0.0,0.0,51,0.00,,,0.00,WUHU216WMR968SP,2013-09-07 01:48:00,
2013-09-06 20:53:00,73.6,55.4,29.68,North,8,0.0,0.0,53,0.00,,,0.00,WUHU216WMR968SP,2013-09-07 01:53:00,
2013-09-06 20:58:00,73.4,55.4,29.68,North,8,0.0,0.0,54,0.00,,,0.00,WUHU216WMR968SP,2013-09-07 01:58:00,
2013-09-06 21:03:00,73.0,57.2,29.68,North,8,0.0,0.0,55,0.00,,,0.00,WUHU216WMR968SP,2013-09-07 02:03:00,
2013-09-06 21:08:00,72.9,57.2,29.68,North,8,0.0,0.0,56,0.00,,,0.00,WUHU216WMR968SP,2013-09-07 02:08:00,
2013-09-06 21:13:00,72.9,57.2,29.68,North,8,0.0,0.0,57,0.00,,,0.00,WUHU216WMR968SP,2013-09-07 02:13:00,
2013-09-06 21:18:00,72.7,57.2,29.68,North,8,0.0,0.0,58,0.00,,,0.00,WUHU216WMR968SP,2013-09-07 02:18:00,
2013-09-06 21:23:00,72.7,57.2,29.68,North,8,0.0,0.0,58,0.00,,,0.00,WUHU216WMR968SP,2013-09-07 02:23:00,
2013-09-06 21:28:00,72.7,57.2,29.68,NNE,17,0.0,3.1,58,0.00,,,0.00,WUHU216WMR968SP,2013-09-07 02:28:00,
2013-09-06 21:33:00,72.5,57.2,29.68,NNE,17,0.0,3.1,58,0.00,,,0.00,WUHU216WMR968SP,2013-09-07 02:33:00,
2013-09-06 21:38:00,72.5,59.0,29.68,North,357,0.0,2.7,59,0.00,,,0.00,WUHU216WMR968SP,2013-09-07 02:38:00,
2013-09-06 21:43:00,72.5,59.0,29.68,NNE,15,0.0,2.7,59,0.00,,,0.00,WUHU216WMR968SP,2013-09-07 02:43:00,
2013-09-06 21:48:00,72.5,57.2,29.68,North,5,0.0,2.7,58,0.00,,,0.00,WUHU216WMR968SP,2013-09-07 02:48:00,
2013-09-06 21:53:00,72.5,59.0,29.68,NNE,24,0.0,2.7,59,0.00,,,0.00,WUHU216WMR968SP,2013-09-07 02:53:00,
2013-09-06 21:58:00,73.4,57.2,29.68,NNE,24,0.0,0.0,56,0.00,,,0.00,WUHU216WMR968SP,2013-09-07 02:58:00,
2013-09-06 22:03:00,73.8,55.4,29.68,North,0,0.0,3.1,53,0.00,,,0.00,WUHU216WMR968SP,2013-09-07 03:03:00,
2013-09-06 22:08:00,74.5,55.4,29.68,ENE,71,0.0,3.1,51,0.00,,,0.00,WUHU216WMR968SP,2013-09-07 03:08:00,
2013-09-06 22:13:00,74.5,55.4,29.68,ENE,57,0.0,2.7,50,0.00,,,0.00,WUHU216WMR968SP,2013-09-07 03:13:00,
2013-09-06 22:18:00,74.5,55.4,29.68,NE,45,0.0,2.2,50,0.00,,,0.00,WUHU216WMR968SP,2013-09-07 03:18:00,
2013-09-06 22:23:00,74.5,55.4,29.68,North,8,0.0,3.6,50,0.00,,,0.00,WUHU216WMR968SP,2013-09-07 03:23:00,
2013-09-06 22:28:00,74.3,55.4,29.68,North,8,0.0,3.6,49,0.00,,,0.00,WUHU216WMR968SP,2013-09-07 03:28:00,
2013-09-06 22:33:00,73.8,53.6,29.68,North,0,0.0,2.7,50,0.00,,,0.00,WUHU216WMR968SP,2013-09-07 03:33:00,
2013-09-06 22:38:00,72.7,55.4,29.68,North,0,0.0,3.1,53,0.00,,,0.00,WUHU216WMR968SP,2013-09-07 03:38:00,
2013-09-06 22:43:00,71.8,55.4,29.68,North,0,0.0,3.1,56,0.00,,,0.00,WUHU216WMR968SP,2013-09-07 03:43:00,
2013-09-06 22:48:00,71.4,57.2,29.68,North,0,0.0,2.7,59,0.00,,,0.00,WUHU216WMR968SP,2013-09-07 03:48:00,
2013-09-06 22:53:00,71.1,57.2,29.68,North,0,0.0,0.0,61,0.00,,,0.00,WUHU216WMR968SP,2013-09-07 03:53:00,
2013-09-06 22:58:00,70.7,59.0,29.68,North,0,0.0,0.0,64,0.00,,,0.00,WUHU216WMR968SP,2013-09-07 03:58:00,
2013-09-06 23:01:00,70.7,59.0,29.68,North,0,0.0,0.0,64,0.00,,,0.00,WUHU216WMR968SP,2013-09-07 04:01:00,
2013-09-06 23:02:00,70.7,59.0,29.68,North,0,0.0,0.0,65,0.00,,,0.00,WUHU216WMR968SP,2013-09-07 04:02:00,
2013-09-06 23:04:00,70.5,57.2,29.68,North,0,0.0,0.0,66,0.00,,,0.00,WUHU216WMR968SP,2013-09-07 04:04:00,
2013-09-06 23:09:00,70.2,57.2,29.68,North,0,0.0,0.0,66,0.00,,,0.00,WUHU216WMR968SP,2013-09-07 04:09:00,
2013-09-06 23:14:00,69.8,57.2,29.68,North,0,0.0,0.0,66,0.00,,,0.00,WUHU216WMR968SP,2013-09-07 04:14:00,
2013-09-06 23:19:00,69.4,59.0,29.68,North,0,0.0,0.0,68,0.00,,,0.00,WUHU216WMR968SP,2013-09-07 04:19:00,
2013-09-06 23:24:00,69.3,59.0,29.68,North,0,0.0,0.0,69,0.00,,,0.00,WUHU216WMR968SP,2013-09-07 04:24:00,
2013-09-06 23:29:00,69.1,59.0,29.68,North,0,0.0,0.0,70,0.00,,,0.00,WUHU216WMR968SP,2013-09-07 04:29:00,
2013-09-06 23:34:00,69.1,60.8,29.68,North,0,0.0,0.0,71,0.00,,,0.00,WUHU216WMR968SP,2013-09-07 04:34:00,
2013-09-06 23:39:00,69.1,60.8,29.68,North,0,0.0,0.0,72,0.00,,,0.00,WUHU216WMR968SP,2013-09-07 04:39:00,
2013-09-06 23:44:00,69.1,60.8,29.68,North,0,0.0,0.0,72,0.00,,,0.00,WUHU216WMR968SP,2013-09-07 04:44:00,
2013-09-06 23:49:00,69.3,60.8,29.68,North,0,0.0,0.0,72,0.00,,,0.00,WUHU216WMR968SP,2013-09-07 04:49:00,
2013-09-06 23:54:00,69.4,59.0,29.68,North,0,0.0,0.0,70,0.00,,,0.00,WUHU216WMR968SP,2013-09-07 04:54:00,
2013-09-06 23:59:00,69.3,59.0,29.68,North,0,0.0,0.0,70,0.00,,,0.00,WUHU216WMR968SP,2013-09-07 04:59:00,